This is the latest recevied weather packets stored in our database for station/object SP1BMW-13. If no packets are shown the sender has not sent any weather packets the latest 10 day(s).
| Time | Temp. | Humidity | Pressure | Rain* | Wind** | Luminosity | Snow |
|---|---|---|---|---|---|---|---|
| 1778110373 | 7.22° C | 87% | 1009.3 hPa | 0 mm | 0.45 m/s, 43° | 0 W/m² | - |
| 1778110313 | 7.22° C | 87% | 1009.2 hPa | 0 mm | 0.89 m/s, 297° | 0 W/m² | - |
| 1778110253 | 7.22° C | 87% | 1009.5 hPa | 0 mm | 0.45 m/s, 23° | 0 W/m² | - |
| 1778110193 | 7.22° C | 87% | 1009.3 hPa | 0 mm | 0 m/s | 0 W/m² | - |
| 1778110133 | 7.22° C | 87% | 1009.4 hPa | 0 mm | 0.89 m/s, 94° | 0 W/m² | - |
| 1778110073 | 7.22° C | 87% | 1009.4 hPa | 0 mm | 0.89 m/s, 350° | 0 W/m² | - |
| 1778110013 | 7.22° C | 88% | 1009.3 hPa | 0 mm | 0.89 m/s, 272° | 0 W/m² | - |
| 1778109953 | 7.22° C | 88% | 1009.4 hPa | 0 mm | 0.45 m/s, 29° | 0 W/m² | - |
| 1778109893 | 7.22° C | 88% | 1009.3 hPa | 0 mm | 0 m/s | 0 W/m² | - |
| 1778109833 | 7.22° C | 88% | 1009.4 hPa | 0 mm | 0 m/s | 0 W/m² | - |
| 1778109773 | 7.22° C | 88% | 1009.3 hPa | 0 mm | 0.45 m/s, 32° | 0 W/m² | - |
| 1778109713 | 7.22° C | 87% | 1009.2 hPa | 0 mm | 0 m/s | 0 W/m² | - |
| 1778109653 | 7.22° C | 87% | 1009.4 hPa | 0 mm | 0 m/s | 0 W/m² | - |
| 1778109593 | 7.22° C | 87% | 1009.4 hPa | 0 mm | 0.45 m/s, 54° | 0 W/m² | - |
| 1778109533 | 7.22° C | 87% | 1009.3 hPa | 0 mm | 0.45 m/s, 65° | 0 W/m² | - |
| 1778109473 | 7.22° C | 87% | 1009.3 hPa | 0 mm | 0 m/s | 0 W/m² | - |
| 1778109413 | 7.22° C | 88% | 1009.2 hPa | 0 mm | 2.24 m/s, 266° | 0 W/m² | - |
| 1778109353 | 7.22° C | 87% | 1009.2 hPa | 0 mm | 0 m/s | 0 W/m² | - |
| 1778109293 | 7.22° C | 87% | 1009.2 hPa | 0 mm | 0.45 m/s, 311° | 0 W/m² | - |
| 1778109233 | 7.22° C | 87% | 1009.1 hPa | 0 mm | 0.89 m/s, 47° | 0 W/m² | - |
| 1778109173 | 7.22° C | 87% | 1009.2 hPa | 0 mm | 0.89 m/s, 39° | 0 W/m² | - |
| 1778109113 | 7.22° C | 87% | 1009.1 hPa | 0 mm | 0.45 m/s, 43° | 0 W/m² | - |
| 1778109053 | 7.22° C | 87% | 1009 hPa | 0 mm | 0.89 m/s, 46° | 0 W/m² | - |
| 1778108933 | 7.22° C | 87% | 1009.2 hPa | 0 mm | 0.45 m/s, 38° | 0 W/m² | - |
| 1778108873 | 7.22° C | 87% | 1009 hPa | 0 mm | 0.45 m/s, 28° | 0 W/m² | - |
* Rain latest hour (hover to see other rain measurements)
** Current wind speed in m/s (hover to see current wind gust speed)